RYR4735 UKOO-LUKK

Flight info

Callsign RYR4735
Flight time 0h 21m
Altitude 12000
Route UKOO/16 K0611F120 SURA1E SURAP SURA5E LUKK/26
Aircraft B738/M-SDE2E3FGHIRWXY/LB1

Departure

Time 2026-05-09 15:10
Airport Odesa International Airport (UKOO)

Arrival

Time 2026-05-09 15:31
Airport Chişinău International Airport (LUKK)
Time Latitude Longitude Altitude Speed Heading
2026-05-09 14:54 46.44207 30.67172 175 ft 0 kts 259°
2026-05-09 15:02 46.44208 30.67181 172 ft 2 kts 259°
2026-05-09 15:02 46.44211 30.67204 172 ft 2 kts 259°
2026-05-09 15:03 46.44214 30.67228 172 ft 2 kts 259°
2026-05-09 15:03 46.44217 30.67251 172 ft 2 kts 259°
2026-05-09 15:03 46.44220 30.67274 172 ft 2 kts 259°
2026-05-09 15:03 46.44223 30.67297 172 ft 2 kts 259°
2026-05-09 15:04 46.44223 30.67298 172 ft 0 kts 259°
2026-05-09 15:06 46.44216 30.67285 173 ft 2 kts 217°
2026-05-09 15:06 46.44194 30.67286 172 ft 4 kts 171°
2026-05-09 15:06 46.44160 30.67290 172 ft 5 kts 173°
2026-05-09 15:07 46.44122 30.67297 172 ft 6 kts 171°
2026-05-09 15:07 46.44081 30.67308 172 ft 6 kts 169°
2026-05-09 15:07 46.44038 30.67318 172 ft 6 kts 180°
2026-05-09 15:07 46.44000 30.67286 172 ft 7 kts 235°
2026-05-09 15:08 46.43981 30.67210 172 ft 9 kts 253°
2026-05-09 15:08 46.43932 30.66976 172 ft 15 kts 253°
2026-05-09 15:08 46.43911 30.66871 172 ft 9 kts 254°
2026-05-09 15:09 46.43871 30.66805 171 ft 9 kts 180°
2026-05-09 15:10 46.38249 30.69045 3348 ft 179 kts 162°
2026-05-09 15:11 46.37064 30.69629 4179 ft 178 kts 162°
2026-05-09 15:11 46.35901 30.70182 5063 ft 175 kts 163°
2026-05-09 15:11 46.34734 30.70734 5846 ft 177 kts 159°
2026-05-09 15:11 46.33761 30.71809 6545 ft 181 kts 126°
2026-05-09 15:12 46.33321 30.73622 6859 ft 207 kts 92°
2026-05-09 15:12 46.33492 30.75030 6983 ft 225 kts 69°
2026-05-09 15:12 46.34503 30.76874 7220 ft 247 kts 34°
2026-05-09 15:12 46.36767 30.77617 7671 ft 274 kts 349°
2026-05-09 15:13 46.38489 30.76341 8063 ft 288 kts 313°
2026-05-09 15:13 46.39568 30.73909 8822 ft 290 kts 295°
2026-05-09 15:13 46.40228 30.72168 9375 ft 293 kts 299°
2026-05-09 15:13 46.41726 30.68863 10347 ft 301 kts 303°
2026-05-09 15:14 46.42514 30.67109 10542 ft 315 kts 295°
2026-05-09 15:14 46.43190 30.64012 10877 ft 330 kts 281°
2026-05-09 15:14 46.43692 30.60709 11415 ft 340 kts 280°
2026-05-09 15:14 46.44199 30.57321 11991 ft 348 kts 280°
2026-05-09 15:15 46.44716 30.53893 12060 ft 348 kts 280°
2026-05-09 15:15 46.45233 30.50499 12063 ft 350 kts 280°
2026-05-09 15:15 46.45764 30.47051 12061 ft 350 kts 280°
2026-05-09 15:15 46.46303 30.43557 12176 ft 362 kts 280°
2026-05-09 15:16 46.46860 30.39951 12760 ft 369 kts 280°
2026-05-09 15:16 46.47424 30.36313 13526 ft 370 kts 280°
2026-05-09 15:16 46.47991 30.32654 13954 ft 372 kts 280°
2026-05-09 15:16 46.48559 30.28979 14062 ft 375 kts 280°
2026-05-09 15:17 46.49130 30.25271 14052 ft 375 kts 280°
2026-05-09 15:17 46.49699 30.21572 14058 ft 374 kts 280°
2026-05-09 15:17 46.50258 30.17934 14063 ft 374 kts 280°
2026-05-09 15:17 46.50822 30.14252 14060 ft 374 kts 280°
2026-05-09 15:18 46.51385 30.10560 14064 ft 374 kts 280°
2026-05-09 15:18 46.51947 30.06871 14064 ft 374 kts 280°
2026-05-09 15:18 46.52510 30.03168 14062 ft 374 kts 280°
2026-05-09 15:18 46.53071 29.99471 14066 ft 375 kts 280°
2026-05-09 15:19 46.53623 29.95822 14070 ft 375 kts 280°
2026-05-09 15:19 46.54182 29.92120 14069 ft 375 kts 280°
2026-05-09 15:19 46.54918 29.88524 14050 ft 367 kts 292°
2026-05-09 15:19 46.56076 29.85270 13873 ft 362 kts 300°
2026-05-09 15:20 46.57567 29.82320 13474 ft 363 kts 310°
2026-05-09 15:20 46.60956 29.76860 12585 ft 364 kts 311°
2026-05-09 15:20 46.62651 29.74158 12119 ft 358 kts 311°
2026-05-09 15:21 46.64304 29.71512 11667 ft 348 kts 311°
2026-05-09 15:21 46.65909 29.68928 11228 ft 339 kts 311°
2026-05-09 15:21 46.67467 29.66410 10808 ft 331 kts 311°
2026-05-09 15:21 46.68969 29.63972 10397 ft 323 kts 311°
2026-05-09 15:22 46.70455 29.61556 9988 ft 317 kts 311°
2026-05-09 15:22 46.71912 29.59184 9556 ft 311 kts 311°
2026-05-09 15:22 46.73336 29.56862 9162 ft 304 kts 311°
2026-05-09 15:22 46.74741 29.54570 8791 ft 304 kts 311°
2026-05-09 15:23 46.76149 29.52269 8410 ft 304 kts 311°
2026-05-09 15:23 46.77562 29.49958 8025 ft 305 kts 310°
2026-05-09 15:23 46.78979 29.47640 7653 ft 306 kts 310°
2026-05-09 15:23 46.80390 29.45329 7256 ft 302 kts 310°
2026-05-09 15:24 46.81768 29.43072 6898 ft 295 kts 310°
2026-05-09 15:24 46.83119 29.40856 6542 ft 289 kts 310°
2026-05-09 15:24 46.84435 29.38695 6203 ft 280 kts 310°
2026-05-09 15:24 46.85702 29.36613 5864 ft 268 kts 311°
2026-05-09 15:25 46.86912 29.34623 5543 ft 256 kts 311°
2026-05-09 15:25 46.88068 29.32723 5267 ft 244 kts 311°
2026-05-09 15:25 46.89172 29.30904 5010 ft 233 kts 311°
2026-05-09 15:26 46.91275 29.27436 4484 ft 220 kts 311°
2026-05-09 15:26 46.92261 29.25811 4279 ft 207 kts 312°
2026-05-09 15:26 46.93033 29.24148 4046 ft 195 kts 284°
2026-05-09 15:26 46.93172 29.22252 3871 ft 185 kts 272°
2026-05-09 15:27 46.93276 29.20399 3633 ft 180 kts 271°
2026-05-09 15:27 46.93299 29.18597 3395 ft 174 kts 267°
2026-05-09 15:27 46.93274 29.16846 3148 ft 169 kts 266°
2026-05-09 15:27 46.93240 29.15161 2942 ft 164 kts 265°
2026-05-09 15:28 46.93205 29.13510 2718 ft 160 kts 265°
2026-05-09 15:28 46.93169 29.11888 2513 ft 158 kts 264°
2026-05-09 15:28 46.93133 29.10252 2318 ft 168 kts 264°
2026-05-09 15:28 46.93097 29.08544 2079 ft 166 kts 265°
2026-05-09 15:29 46.93061 29.06863 1854 ft 165 kts 264°
2026-05-09 15:29 46.93028 29.05242 1649 ft 148 kts 264°
2026-05-09 15:29 46.92998 29.03819 1418 ft 136 kts 264°
2026-05-09 15:29 46.92984 29.02466 1130 ft 133 kts 264°
2026-05-09 15:30 46.92972 29.01132 896 ft 131 kts 265°
2026-05-09 15:30 46.92930 28.99819 714 ft 125 kts 262°
2026-05-09 15:30 46.92888 28.98523 782 ft 132 kts 264°
2026-05-09 15:30 46.92865 28.97158 615 ft 138 kts 265°
2026-05-09 15:31 46.92831 28.95786 357 ft 130 kts 266°
2026-05-09 15:31 46.92803 28.94573 310 ft 101 kts 269°
2026-05-09 15:31 46.92789 28.93764 329 ft 58 kts 270°
2026-05-09 15:31 46.92783 28.93275 345 ft 41 kts 266°
2026-05-09 15:32 46.92775 28.92899 352 ft 34 kts 269°
2026-05-09 15:32 46.92767 28.92576 361 ft 30 kts 268°
2026-05-09 15:32 46.92762 28.92283 372 ft 28 kts 269°
2026-05-09 15:32 46.92767 28.92052 374 ft 16 kts 293°
2026-05-09 15:33 46.92865 28.91996 374 ft 16 kts
2026-05-09 15:33 46.92974 28.91993 373 ft 15 kts 359°
2026-05-09 15:33 46.93083 28.91989 373 ft 17 kts
2026-05-09 15:33 46.93207 28.92026 372 ft 19 kts 15°
2026-05-09 15:34 46.93251 28.92194 368 ft 22 kts 99°
2026-05-09 15:34 46.93236 28.92410 368 ft 22 kts 95°
2026-05-09 15:34 46.93219 28.92655 357 ft 26 kts 98°
2026-05-09 15:34 46.93197 28.92929 350 ft 29 kts 96°
2026-05-09 15:35 46.93170 28.93231 345 ft 31 kts 97°
2026-05-09 15:35 46.93219 28.93448 335 ft 22 kts 22°
2026-05-09 15:35 46.93365 28.93477 334 ft 15 kts
2026-05-09 15:35 46.93429 28.93535 331 ft 12 kts 55°
2026-05-09 15:36 46.93451 28.93590 331 ft 7 kts 73°
2026-05-09 15:36 46.93451 28.93624 331 ft 0 kts 94°